Location: Stanford
(52.2833°N, 2.4333°W)
Time: 19:51:32
(UTC+00:00)

Cosmos 2082 Rocket - Pass Details

Date: 22 January 2021
Orbit: 832 x 855 km, 71.0° (Epoch: 27 February)

Event Time Altitude Azimuth Distance (km) Brightness Sun altitude
Rises 20:45:58 0° 326° (NW) 3,438 6.0 -37.1°
Reaches altitude 10° 20:48:32 10° 320° (NW) 2,497 5.2 -37.5°
Enters shadow 20:51:44 31° 299° (WNW) 1,476 3.8 -38.0°
